This demonstration page uses our WeatherBlox Daily Observations layout. Learn more.

39.08367, -84.50855

Hourly Observations for February 28, 2020

Temp ( °F °C ) Dew Point ( °F °C ) Humidity (%) Winds ( mph kmh ) Pressure ( in mb ) Visibility ( mi km ) Precip ( " mm )
12:53 am 00:53 Cloudy 35 1.7 26 -3.3 70 70 WSW 15 24 30.06 1018 10 16.0934 0 0
1:42 am 01:42 Cloudy with Light Snow 33 0.6 29 -1.7 85 85 WSW 10 17 30.07 1018 2.5 4.02335 0.001 0.001
1:53 am 01:53 Cloudy with Light Snow 32 0 29 -1.7 88 88 SW 9 15 30.05 1018 2.5 4.02335 0.001 0.001
2:03 am 02:03 Cloudy with Light Snow 33 0.6 29 -1.7 85 85 SW 12 19 30.07 1018 4 6.43736 0.001 0.001
2:53 am 02:53 Cloudy with Light Snow 33 0.6 30 -1.1 89 89 WSW 9 15 30.04 1017 3 4.82802 0.001 0.001
3:20 am 03:20 Cloudy with Light Snow 33 0.6 30 -1.1 89 89 W 8 13 30.05 1017 4 6.43736 0.001 0.001
3:53 am 03:53 Cloudy 33 0.6 30 -1.1 89 89 WSW 7 11 30.03 1017 10 16.0934 0.001 0.001
4:32 am 04:32 Cloudy with Light Snow 33 0.6 30 -1.1 89 89 WSW 7 11 30.04 1017 2.5 4.02335 0.001 0.001
4:39 am 04:39 Cloudy with Light Snow 33 0.6 30 -1.1 89 89 NNW 9 15 30.05 1017 3 4.82802 0.001 0.001
4:46 am 04:46 Cloudy with Light Snow 32 0 29 -1.7 88 88 NW 8 13 30.05 1018 2.5 4.02335 0.001 0.001
4:53 am 04:53 Cloudy with Light Snow 32 0 29 -1.7 88 88 NNW 5 7 30.03 1017 4 6.43736 0.001 0.001
5:29 am 05:29 Partly Cloudy 30 -1.1 24 -4.4 79 79 NW 8 13 30.06 1018 10 16.0934 0.001 0.001
5:53 am 05:53 Clear 29 -1.7 22 -5.6 75 75 NW 7 11 30.04 1017 10 16.0934 0.001 0.001
6:53 am 06:53 Clear 27 -2.8 20 -6.7 75 75 NW 8 13 30.05 1018 10 16.0934 0 0
7:53 am 07:53 Sunny 27 -2.8 17 -8.3 66 66 NW 5 7 30.05 1018 10 16.0934 0 0
8:53 am 08:53 Mostly Sunny 29 -1.7 17 -8.3 61 61 NW 7 11 30.06 1018 10 16.0934 0 0
9:53 am 09:53 Sunny 30 -1.1 19 -7.2 64 64 W 9 15 30.07 1018 10 16.0934 0 0
10:53 am 10:53 Cloudy 31 -0.6 17 -8.3 56 56 WNW 15 24 30.08 1019 10 16.0934 0 0
11:53 am 11:53 Cloudy 34 1.1 19 -7.2 54 54 WNW 12 19 30.07 1018 10 16.0934 0 0
12:53 pm 12:53 Mostly Cloudy 36 2.2 19 -7.2 50 50 W 10 17 30.05 1018 10 16.0934 0 0
1:53 pm 13:53 Mostly Cloudy 37 2.8 19 -7.2 48 48 W 17 28 30.04 1017 10 16.0934 0 0
2:53 pm 14:53 Cloudy 36 2.2 20 -6.7 52 52 WNW 13 20 30.03 1017 10 16.0934 0 0
3:53 pm 15:53 Cloudy 36 2.2 21 -6.1 55 55 W 10 17 30.03 1017 10 16.0934 0 0
4:53 pm 16:53 Cloudy with Light Snow 35 1.7 22 -5.6 59 59 W 14 22 30.04 1017 4 6.43736 0.001 0.001
5:32 pm 17:32 Cloudy with Light Snow 33 0.6 26 -3.3 75 75 WNW 14 22 30.07 1018 3 4.82802 0.001 0.001
5:53 pm 17:53 Cloudy with Light Snow 32 0 28 -2.2 85 85 W 13 20 30.06 1018 1 1.60934 0.001 0.001
6:18 pm 18:18 Cloudy with Light Snow 31 -0.6 29 -1.7 92 92 W 7 11 30.09 1019 0.75 1.207005 0.001 0.001
6:53 pm 18:53 Cloudy with Light Snow 31 -0.6 29 -1.7 92 92 W 9 15 30.07 1018 0.75 1.207005 0.001 0.001
7:00 pm 19:00 Cloudy with Light Snow 32 0 28 -2.2 85 85 W 9 15 30.09 1019 2.5 4.02335 0.001 0.001
7:53 pm 19:53 Cloudy with Light Snow 31 -0.6 27 -2.8 85 85 W 6 9 30.09 1019 2.5 4.02335 0.001 0.001
8:53 pm 20:53 Cloudy with Light Snow 31 -0.6 26 -3.3 82 82 W 7 11 30.09 1019 5 8.0467 0.001 0.001
9:53 pm 21:53 Cloudy with Light Snow 30 -1.1 25 -3.9 82 82 N 9 15 30.1 1019 4 6.43736 0.001 0.001
10:53 pm 22:53 Cloudy 29 -1.7 22 -5.6 75 75 NNW 14 22 30.12 1020 10 16.0934 0.001 0.001
11:38 pm 23:38 Cloudy 28 -2.2 20 -6.7 72 72 NNW 13 20 30.15 1021 8 12.87472 0.001 0.001
11:53 pm 23:53 Cloudy 28 -2.2 20 -6.7 72 72 NW 9 15 30.13 1020 10 16.0934 0.001 0.001

Powered by AerisWeather